Weather in Kazlų Rūda

Lithuania     54°45′05″N   23°29′54″E
temp.,
°C
wind,
m/s
gust,
m/s
humid.,
%
clouds,
%
prec.,
mm/h
press.,
hPa
HPBL,
m
26 july, mon
mon2600:00+18se23796 0.0 101732
03:00+18ese3579100 0.0 101894
06:00+18se3576100 0.0 101893
09:00+22se4864100 0.0 1018313
12:00+26se5750100 0.0 1018924
15:00+28ese574094 0.0 10172413
18:00+28ese5745100 0.0 10162095
21:00+23e4106799 0.0 1015236
27 july, tue
tue2700:00+22ese51163100 0.0 1015302
03:00+20ese5137099 0.0 1014346
06:00+18ese51291100 0.8 1014346
09:00+18ese5119382 2.6 1013424
12:00+25se586759 1.3 10121126
15:00+26ssw5771100 3.3 10111213
18:00+22ssw2491100 2.7 1011325
21:00+20s3593100 3.5 1010143
28 july, wed
wed2800:00+19wsw349596 0.8 101189
03:00+18w399876 0.8 1011289
06:00+17wsw389899 0.0 1011223
09:00+21w5884100 0.0 1011391
12:00+26w57543 0.0 10121207
15:00+28w684552 0.0 10112432
18:00+26wnw695422 0.0 10111512
21:00+21w237389 0.0 101138
29 july, thu
thu2900:00+18w22806 0.0 101228
03:00+17w2382100 0.0 101241
06:00+18wsw2476100 0.0 1012109
09:00+20wsw356910 0.0 1012332
12:00+25w345216 0.0 10121334
15:00+25w3452100 0.1 10111541
18:00+23w356394 0.0 1011349
21:00+22w116942 0.0 101011
30 july, fri
fri3000:00+19s33804 0.0 101026
03:00+18s347994 0.0 101069
06:00+20sw246822 0.0 100984
09:00+22ssw4116666 0.0 1008549
12:00+27sw69475 0.0 10071720
15:00+27sw61050100 0.1 10051669
18:00+25wsw61167100 0.8 10041274
21:00+19ssw229469 4.8 100438